Location: Sihaung
(22.8641°N, 94.0549°E)
Time: 10:34:57
(UTC+00:00)

FUSE - Pass Details

Date: 03 March 2021
Orbit: 742 x 756 km, 25.0° (Epoch: 16 April)

Event Time Altitude Azimuth Distance (km) Brightness Sun altitude
Rises 13:38:38 0° 278° (W) 3,193 8.5 -26.2°
Reaches altitude 10° 13:41:07 10° 280° (W) 2,269 7.4 -26.8°
Enters shadow 13:46:04 70° 325° (NW) 799 4.1 -28.0°
